Date,TemperatureHighF,TemperatureAvgF,TemperatureLowF,DewpointHighF,DewpointAvgF,DewpointLowF,HumidityHigh,HumidityAvg,HumidityLow,PressureMaxIn,PressureMinIn,WindSpeedMaxMPH,WindSpeedAvgMPH,GustSpeedMaxMPH,PrecipitationSumIn
2013-1-1,50.1,47.4,43.7,49.3,40.1,28.3,97,78,48,30.09,29.91,14,2,14,0.21
2013-1-2,49.6,43.9,40.1,48.8,41.6,37.5,97,92,80,30.18,29.90,7,2,7,0.24
2013-1-3,44.9,39.6,32.4,38.6,36.3,31.4,96,88,69,30.25,30.13,5,1,5,0.00
2013-1-4,50.2,38.1,26.6,31.5,25.6,21.3,97,65,33,30.31,30.18,13,2,13,0.00
2013-1-5,50.2,38.6,28.7,29.8,25.6,21.8,79,61,37,30.39,30.25,8,1,8,0.00
2013-1-6,50.4,43.8,38.5,38.3,35.1,28.5,92,72,56,30.25,30.05,6,1,6,0.00
2013-1-7,52.7,41.8,34.8,34.0,32.0,29.6,83,69,47,30.43,30.16,10,1,10,0.00
2013-1-8,55.7,43.7,33.1,40.2,35.8,30.4,93,75,52,30.46,30.35,7,0,7,0.00
2013-1-9,67.8,52.5,38.9,51.7,45.2,37.0,95,78,53,30.44,30.33,9,1,9,0.00
2013-1-10,65.0,55.5,48.9,49.9,45.0,36.1,90,69,53,30.51,30.39,8,2,8,0.00
2013-1-11,51.6,47.4,41.5,50.8,43.1,30.8,98,86,53,30.42,30.13,9,1,9,0.18
2013-1-12,71.3,58.1,49.1,63.7,56.2,48.6,99,94,76,30.16,30.08,5,1,5,0.00
2013-1-13,75.2,64.0,55.4,63.3,59.0,54.8,99,85,62,30.12,30.02,14,2,14,0.01
2013-1-14,69.0,64.8,61.3,63.4,60.4,57.0,96,86,79,30.13,30.05,10,1,10,0.01
2013-1-15,61.0,45.7,43.7,58.7,44.7,42.8,98,96,90,30.22,30.04,12,3,12,0.01
2013-1-16,49.6,45.7,42.4,49.1,45.2,41.9,98,98,98,30.07,29.96,8,1,8,0.16
2013-1-17,50.5,45.9,33.0,50.0,45.1,32.0,98,97,94,30.14,29.88,17,3,17,1.00
2013-1-18,45.6,36.1,29.0,35.1,29.8,24.5,98,80,45,30.53,30.13,8,2,8,0.30
2013-1-19,54.6,33.3,27.3,31.2,27.2,24.5,92,79,36,30.50,30.18,5,0,10,0.00
2013-1-20,63.1,42.6,42.1,36.4,31.3,29.4,65,64,34,30.18,29.97,8,1,17,0.00
2013-1-21,59.6,52.4,42.4,32.5,27.2,17.1,53,38,29,30.05,29.85,14,3,14,0.00
2013-1-22,42.1,33.3,25.2,18.5,6.4,-3.7,44,33,17,30.28,29.94,13,3,13,0.00
2013-1-23,40.8,28.7,17.9,17.2,10.5,2.1,76,48,29,30.38,30.05,9,2,9,0.00
2013-1-24,35.3,31.5,23.5,24.8,14.5,4.0,69,50,29,30.52,29.96,16,4,16,0.00
2013-1-25,27.2,24.3,20.2,25.3,14.4,4.5,93,68,41,30.53,30.11,6,1,6,0.03
2013-1-26,37.2,30.2,26.5,32.5,28.1,24.8,96,92,77,30.41,30.09,6,1,6,0.05
2013-1-27,41.9,31.4,23.4,29.3,26.3,22.1,96,82,57,30.60,30.40,7,1,7,0.03
2013-1-28,51.2,42.5,31.5,47.4,36.6,27.8,91,80,62,30.50,30.22,12,2,12,0.01
2013-1-29,74.2,59.1,47.0,58.4,52.6,45.6,95,80,56,30.23,30.05,13,3,13,0.00
2013-1-30,70.3,65.9,60.9,64.6,61.9,57.6,94,87,76,30.05,29.36,26,7,26,0.39
2013-1-31,63.3,46.8,34.2,60.9,31.1,19.1,92,57,32,30.00,29.42,24,8,24,0.19
2013-2-1,40.4,35.2,26.1,28.5,13.8,2.5,65,43,24,30.38,29.86,20,5,20,0.00
2013-2-2,45.0,33.6,19.3,36.2,13.4,6.7,81,45,27,30.40,30.02,16,2,16,0.00
2013-2-3,48.7,41.5,34.5,36.5,29.9,22.9,92,65,43,30.02,29.84,14,3,14,0.00
2013-2-4,48.9,38.7,27.1,28.2,23.4,18.7,83,56,35,30.14,29.97,10,2,10,0.00
2013-2-5,61.1,47.9,40.7,35.9,32.7,27.9,70,57,36,30.00,29.86,12,2,12,0.00
2013-2-6,62.7,48.8,37.1,35.9,30.7,23.0,85,54,23,30.27,29.95,14,2,14,0.00
2013-2-7,48.2,42.0,36.5,41.8,37.2,33.0,96,83,67,30.32,29.98,12,4,12,0.41
2013-2-8,55.1,45.5,38.7,45.9,39.7,29.3,96,82,54,30.03,29.80,13,5,13,0.54
2013-2-9,52.6,40.8,30.5,29.7,23.3,17.0,84,53,25,30.35,30.02,12,2,12,0.00
2013-2-10,54.2,41.7,30.9,41.1,22.9,18.2,87,49,27,30.48,30.20,12,2,12,0.02
2013-2-11,62.9,56.4,44.7,59.8,54.0,41.1,98,92,87,30.20,29.90,13,4,13,0.06
2013-2-12,60.1,53.5,46.3,54.7,35.7,26.4,93,54,29,30.06,29.88,12,2,12,0.00
2013-2-13,50.1,45.9,42.2,46.3,42.9,35.4,97,90,58,29.93,29.60,12,2,12,0.24
2013-2-14,52.4,41.6,32.2,36.0,33.3,30.8,95,74,48,30.06,29.81,9,1,9,0.00
2013-2-15,62.6,46.7,33.9,39.7,33.8,31.0,93,65,33,30.08,29.92,10,1,10,0.00
2013-2-16,46.5,37.0,32.3,35.7,32.7,31.0,96,85,63,29.96,29.81,12,2,12,0.24
2013-2-17,37.6,32.0,23.8,15.1,10.5,7.5,69,41,29,30.28,30.08,26,4,26,0.03
2013-2-18,52.9,36.0,19.1,26.6,18.4,13.7,87,53,26,30.42,30.25,10,2,10,0.07
2013-2-19,52.0,44.2,36.1,50.0,39.1,26.5,96,82,60,30.25,29.84,15,4,15,0.12
2013-2-20,53.1,41.0,27.1,39.3,20.7,11.4,96,49,19,30.13,29.94,16,3,16,0.00
2013-2-21,54.6,41.0,26.5,22.4,19.1,15.9,75,44,23,30.26,30.10,12,2,12,0.00
2013-2-22,41.8,35.7,31.8,35.0,31.0,20.6,96,84,44,30.35,30.13,9,2,9,0.37
2013-2-23,43.3,39.5,35.6,42.5,38.7,34.6,97,97,96,30.13,29.80,7,1,7,0.82
2013-2-24,62.9,50.2,42.8,46.1,37.7,27.4,98,67,30,30.02,29.78,14,2,14,0.09
2013-2-25,43.5,37.8,32.7,29.0,24.5,21.3,70,59,47,30.21,30.02,12,3,12,0.00
2013-2-26,57.5,45.1,35.2,56.9,41.5,25.6,98,88,65,30.14,29.55,20,4,20,0.89
2013-2-27,60.7,49.7,42.8,46.2,40.7,35.8,97,74,44,29.77,29.60,15,4,15,0.01
2013-2-28,46.1,46.1,46.1,39.3,39.3,39.3,77,77,77,29.70,29.70,0,0,0,0.00
2013-3-1,46.1,46.1,46.1,39.3,39.3,39.3,77,77,77,29.70,29.70,0,0,0,0.00
2013-3-2,48.2,43.5,30.3,39.3,31.0,19.6,90,62,42,29.91,29.70,13,2,12,0.00
2013-3-3,46.9,35.5,26.7,23.0,20.3,16.6,78,55,37,29.97,29.83,14,3,14,0.00
2013-3-4,50.6,37.0,25.1,20.6,16.2,12.9,65,45,23,30.10,29.96,16,3,16,0.00
2013-3-5,50.4,43.1,36.2,43.9,33.6,18.8,97,72,41,30.07,29.55,13,2,13,0.40
2013-3-6,46.0,41.6,36.3,43.5,33.5,27.6,97,74,55,30.00,29.49,27,7,27,0.01
2013-3-7,50.9,41.8,32.3,32.2,29.4,25.6,86,62,45,30.22,30.00,16,4,16,0.00
2013-3-8,55.2,42.9,29.8,29.3,26.0,22.8,83,54,32,30.27,30.13,18,4,18,0.00
2013-3-9,62.8,47.2,34.3,31.1,28.3,26.1,74,50,26,30.32,30.22,12,2,12,0.00
2013-3-10,68.7,53.5,37.9,31.7,26.4,19.3,68,39,17,30.32,30.19,8,2,8,0.00
2013-3-11,70.7,56.3,42.2,53.8,44.4,26.3,86,65,39,30.23,29.92,20,4,20,0.00
2013-3-12,70.3,61.4,49.9,62.6,54.0,33.6,96,78,49,29.92,29.73,15,5,15,0.63
2013-3-13,55.7,46.6,34.5,35.5,28.0,19.6,88,51,28,30.11,29.91,18,5,18,0.00
2013-3-14,54.0,40.6,29.4,22.1,18.9,15.4,63,43,22,30.23,30.09,13,3,13,0.00
2013-3-15,62.6,47.2,29.9,35.6,27.5,17.9,77,48,32,30.17,29.88,14,3,14,0.00
2013-3-16,60.2,54.1,52.2,45.7,39.9,35.3,64,59,49,29.88,29.79,10,3,10,0.00
2013-3-18,42.7,40.3,37.4,41.6,39.3,36.1,97,96,95,30.19,29.84,10,2,10,0.28
2013-3-19,67.3,51.4,39.6,47.2,33.1,8.0,98,61,17,30.00,29.80,20,4,20,0.38
2013-3-20,57.2,47.0,37.7,23.3,14.4,7.3,49,28,17,30.10,29.77,12,2,12,0.00
2013-3-21,45.2,39.4,30.7,32.2,19.9,10.6,75,47,30,29.96,29.71,15,4,15,0.00
2013-3-22,52.9,37.5,22.9,23.3,14.9,10.2,71,42,21,30.08,29.96,13,3,13,0.00
2013-3-23,56.7,45.4,37.2,32.8,25.9,19.4,71,48,31,30.05,29.89,6,1,6,0.00
2013-3-24,43.0,39.0,36.1,37.5,34.3,28.7,95,84,61,29.92,29.56,12,3,12,0.71
2013-3-25,46.1,38.7,34.8,37.0,31.2,23.3,96,78,42,29.80,29.54,20,3,20,0.01
2013-3-26,48.7,42.1,32.9,30.3,27.1,23.9,76,56,44,30.09,29.80,14,3,14,0.00
2013-3-27,52.4,42.2,31.8,28.0,24.8,20.8,80,52,31,30.21,30.09,16,4,16,0.00
2013-3-28,56.7,43.3,28.7,28.9,25.1,23.0,84,52,28,30.28,30.13,17,3,17,0.00
2013-3-29,59.7,46.2,32.4,30.8,26.9,23.9,81,50,26,30.32,30.17,13,2,13,0.00
2013-3-30,67.3,54.2,41.3,44.4,34.6,26.0,74,50,27,30.23,30.07,10,1,10,0.00
2013-3-31,68.5,57.2,47.9,57.2,51.1,43.1,97,81,64,30.08,29.78,16,3,16,0.77
2013-4-1,71.8,60.9,51.8,54.5,47.0,35.6,98,66,31,29.95,29.78,17,3,17,0.02
2013-4-2,61.4,49.9,36.7,35.7,27.6,21.5,72,44,24,30.14,29.95,13,3,13,0.00
2013-4-3,61.4,50.0,39.8,25.8,21.8,16.8,51,34,20,30.28,30.11,10,2,10,0.00
2013-4-4,49.4,42.5,38.9,39.0,31.6,19.8,96,68,31,30.34,29.90,12,4,12,0.65
2013-4-5,66.3,48.7,39.1,48.2,43.0,37.8,97,83,49,30.00,29.85,8,2,8,0.03
2013-4-6,66.5,54.3,44.8,44.0,32.8,22.1,89,47,26,30.25,30.00,13,3,13,0.00
2013-4-7,65.2,47.7,36.6,47.5,37.6,33.2,89,69,44,30.26,30.09,9,1,9,0.00
2013-4-8,80.6,67.3,55.8,57.7,53.6,47.8,93,64,39,30.15,30.02,15,3,15,0.00
2013-4-9,86.9,72.7,59.7,60.6,57.7,54.6,93,63,37,30.15,30.02,12,3,12,0.00
2013-4-10,89.3,75.6,63.8,63.0,59.9,57.1,86,61,35,30.07,29.90,15,4,15,0.00
2013-4-11,82.4,72.2,62.6,67.1,61.3,58.0,92,70,47,29.96,29.76,18,4,18,0.00
2013-4-12,83.0,72.6,65.6,69.9,63.8,44.8,96,76,46,29.78,29.57,18,5,18,0.75
2013-4-13,76.6,63.9,51.3,45.8,41.8,38.3,68,46,26,29.98,29.73,12,2,12,0.00
2013-4-14,83.0,66.3,47.3,52.5,43.8,35.2,89,50,21,30.08,29.98,10,2,10,0.00
2013-4-15,73.3,65.4,58.7,59.1,56.3,51.3,89,73,56,30.18,29.99,12,2,12,0.03
2013-4-16,78.5,65.6,57.9,62.9,58.7,56.8,97,81,50,30.28,30.17,7,1,7,0.00
2013-4-17,83.8,70.8,58.2,65.5,62.1,57.1,98,76,51,30.20,30.07,9,2,9,0.00
2013-4-18,80.5,70.6,60.9,63.7,60.6,57.0,94,72,47,30.17,30.01,16,4,16,0.00
2013-4-19,83.3,73.1,66.0,68.8,66.0,61.8,95,80,59,30.02,29.68,20,6,20,0.06
2013-4-20,66.5,57.0,46.3,41.9,37.2,31.8,84,50,33,30.25,30.07,12,2,12,0.07
2013-4-21,62.4,51.9,43.0,43.3,40.0,37.4,93,66,45,30.47,30.25,12,2,12,0.00
2013-4-22,61.9,49.5,36.9,45.5,39.3,32.8,89,69,45,30.47,30.25,10,3,10,0.00
2013-4-23,70.0,54.8,46.6,52.0,47.6,44.4,94,78,50,30.26,30.11,7,1,7,0.07
2013-4-24,78.1,63.6,47.6,58.0,53.6,46.3,97,73,47,30.13,29.95,16,3,16,0.00
2013-4-25,74.0,62.2,53.2,57.4,47.6,39.3,84,60,35,30.25,29.99,9,2,9,0.00
2013-4-26,73.3,60.8,47.8,51.3,43.3,34.1,97,59,26,30.40,30.25,7,1,7,0.00
2013-4-27,75.0,63.9,52.7,50.3,45.4,38.9,76,53,30,30.36,30.23,9,1,9,0.00
2013-4-28,63.2,57.6,54.7,54.6,49.8,43.1,96,76,58,30.24,30.08,6,1,6,0.87
2013-4-29,74.2,62.9,54.6,63.4,59.6,53.6,98,90,66,30.09,29.94,6,1,6,1.10
2013-4-30,66.3,60.9,56.6,61.0,58.4,55.0,98,92,77,30.15,29.98,4,0,4,0.01
2013-5-1,60.9,58.5,56.9,59.2,56.5,55.4,96,93,90,30.30,30.14,9,2,9,0.01
2013-5-2,63.6,58.5,53.7,58.1,55.8,51.3,96,91,82,30.31,30.23,7,1,7,0.00
2013-5-3,70.3,57.8,47.9,57.0,50.2,43.8,97,77,51,30.25,30.15,13,2,13,0.00
2013-5-4,64.7,55.4,48.8,54.1,49.1,44.7,91,80,65,30.20,30.06,12,3,12,0.00
2013-5-5,59.4,54.2,49.3,55.8,50.5,46.2,91,87,82,30.09,29.98,13,3,13,0.00
2013-5-6,71.3,60.5,55.6,65.7,59.1,54.6,98,95,81,29.99,29.81,10,2,10,0.92
2013-5-7,73.2,60.8,51.4,59.7,53.7,47.8,98,80,43,29.92,29.83,12,1,12,0.01
2013-5-8,61.1,54.2,53.5,58.8,51.7,50.9,96,91,91,29.98,29.92,2,0,2,0.03
2013-5-9,82.4,67.0,55.5,62.0,57.9,54.7,98,76,43,30.04,29.95,10,1,10,0.01
2013-5-10,87.2,73.5,58.3,63.9,59.7,55.4,92,65,39,30.04,29.91,12,2,12,0.00
2013-5-11,83.2,73.6,66.6,68.0,63.2,59.1,96,71,50,29.93,29.76,14,3,14,0.22
2013-5-15,88.8,83.2,75.3,63.9,62.2,60.3,63,50,41,29.99,29.86,12,3,12,0.00
2013-5-16,86.0,76.6,65.7,63.9,61.3,57.1,85,61,42,29.95,29.86,12,2,12,0.00
2013-5-17,90.2,76.3,63.3,65.9,62.6,59.3,94,66,38,30.05,29.95,8,1,8,0.10
2013-5-18,81.0,70.2,63.4,69.9,66.2,62.4,97,88,66,30.14,30.03,6,0,6,0.33
2013-5-19,78.8,69.9,65.0,71.1,67.0,64.1,98,91,72,30.13,30.03,13,2,13,1.78
2013-5-20,75.0,70.0,67.2,71.5,68.6,66.3,98,95,86,30.09,30.00,6,1,6,0.63
2013-5-21,87.3,74.1,68.4,73.5,69.4,67.3,97,86,57,30.03,29.92,12,2,12,0.00
2013-5-22,85.1,75.0,69.1,70.4,68.4,66.0,95,81,56,30.00,29.87,12,3,12,0.00
2013-5-23,83.7,74.0,69.4,69.7,68.4,65.8,96,84,58,29.93,29.78,9,2,9,0.00
2013-5-24,70.7,64.2,52.3,68.2,53.7,37.8,98,72,36,30.15,29.78,17,3,17,0.09
2013-5-25,74.3,58.4,42.2,47.2,40.9,34.9,91,57,27,30.25,30.11,12,2,12,0.00
2013-5-26,75.3,61.6,50.3,51.7,45.5,39.8,84,58,34,30.26,30.15,8,1,8,0.00
2013-5-27,82.0,67.6,52.2,58.6,52.7,49.1,92,62,35,30.26,30.13,9,2,9,0.00
2013-5-28,84.5,73.7,61.6,67.8,63.1,54.9,93,71,54,30.23,30.11,13,3,13,0.00
2013-5-29,86.3,75.6,63.5,67.0,64.2,61.5,95,70,49,30.21,30.13,12,2,12,0.00
2013-5-30,88.8,76.1,63.9,68.3,64.8,60.8,96,70,42,30.24,30.14,8,2,8,0.00
2013-5-31,89.0,78.2,66.9,71.1,67.3,62.9,95,71,46,30.19,30.07,12,2,12,0.00
2013-6-1,89.0,78.6,68.5,70.1,67.2,63.4,94,70,47,30.11,29.99,12,3,12,0.00
2013-6-2,88.2,77.8,68.6,70.2,67.5,65.1,92,72,52,30.03,29.87,14,4,14,0.04
2013-6-3,83.7,73.8,66.8,73.4,70.2,65.1,97,89,62,29.93,29.79,16,2,16,0.69
2013-6-4,80.0,70.6,65.0,67.9,64.8,62.8,98,83,59,30.08,29.90,5,0,5,0.00
2013-6-5,84.1,73.2,63.4,63.8,60.7,55.6,93,67,41,30.12,29.99,10,2,10,0.00
2013-6-6,75.6,70.7,66.4,72.1,66.7,58.8,97,88,68,30.02,29.80,12,3,12,0.82
2013-6-7,75.7,70.6,68.7,75.0,69.9,68.1,98,98,96,29.83,29.45,14,1,14,5.58
2013-6-8,85.3,73.9,67.0,71.1,68.8,65.1,98,86,60,30.06,29.78,9,1,9,0.03
2013-6-9,89.3,77.6,68.4,74.4,70.7,67.5,98,81,55,30.14,30.02,12,2,12,0.07
2013-6-10,84.0,75.2,71.4,77.5,72.4,69.5,97,91,76,30.07,29.86,16,4,16,0.57
2013-6-11,86.0,76.9,70.0,70.4,67.6,64.4,94,75,49,29.92,29.86,15,2,15,0.00
2013-6-12,91.0,78.8,65.9,75.6,70.3,64.6,96,77,56,29.94,29.83,9,1,9,0.00
2013-6-13,95.3,84.6,74.8,77.3,73.9,65.2,93,73,47,29.83,29.56,16,3,16,0.00
2013-6-26,90.5,76.6,69.1,76.5,70.4,66.0,97,83,57,29.96,29.86,12,2,12,0.12
2013-6-27,89.3,78.0,68.1,77.2,72.3,66.7,97,84,60,29.89,29.68,12,3,12,0.00
2013-6-28,92.0,79.4,70.9,75.5,72.4,68.3,96,81,54,29.72,29.54,13,3,13,1.20
2013-6-29,86.8,75.9,68.6,74.8,71.5,68.0,98,87,65,29.70,29.57,12,1,12,0.54
2013-6-30,86.8,76.2,70.5,76.3,72.6,68.0,97,89,67,29.84,29.68,16,2,16,0.61
2013-7-1,83.3,75.4,69.4,75.5,72.3,68.5,98,91,75,29.96,29.81,16,3,16,0.75
2013-7-2,77.2,73.7,71.6,73.7,72.2,70.3,98,95,88,30.16,29.96,10,3,10,0.00
2013-7-3,87.3,78.1,73.3,76.9,74.1,71.7,98,88,66,30.22,30.13,14,3,14,0.00
2013-7-4,90.0,80.5,73.4,75.6,72.9,68.1,97,79,50,30.25,30.15,13,4,13,0.00
2013-7-5,92.0,80.8,72.9,75.7,73.3,70.9,97,80,55,30.25,30.13,12,3,12,0.00
2013-7-6,89.7,80.3,72.9,76.5,73.2,69.8,96,80,60,30.22,30.09,12,2,12,0.01
2013-7-7,89.3,79.6,70.1,76.0,72.7,68.8,97,80,62,30.16,30.03,12,2,12,0.00
2013-7-8,90.3,79.5,73.1,75.6,73.1,69.2,95,82,52,30.14,30.05,10,1,10,0.01
2013-7-9,90.0,78.0,72.3,78.3,73.5,70.0,97,86,62,30.13,30.03,12,2,12,0.00
2013-7-10,89.0,79.1,73.5,77.6,73.9,69.8,95,85,64,30.08,29.92,12,2,12,0.01
2013-7-11,74.3,73.7,73.1,72.8,72.1,71.0,96,95,92,29.95,29.90,7,2,7,0.00
2013-7-20,89.7,84.1,78.1,77.4,75.0,73.1,86,75,63,29.99,29.88,13,2,13,0.00
2013-7-21,89.8,78.9,73.9,76.5,73.2,71.1,93,84,63,29.97,29.86,9,2,9,0.00
2013-7-22,89.0,79.9,71.9,76.7,73.7,71.0,97,82,61,29.92,29.79,12,2,12,0.00
2013-7-23,90.5,81.8,75.1,74.8,73.0,71.1,91,76,56,29.82,29.68,9,2,9,0.00
2013-7-24,93.3,80.9,71.8,75.7,72.5,69.7,94,78,50,29.81,29.69,6,0,6,0.03
2013-7-25,80.3,73.7,67.7,72.5,69.1,65.6,95,86,69,30.00,29.78,5,1,5,0.00
2013-7-26,86.3,73.8,62.9,68.4,64.8,61.8,97,76,49,30.09,29.99,7,0,7,0.00
2013-7-27,88.8,75.4,67.9,72.0,68.7,66.2,97,82,51,30.03,29.90,12,2,12,0.00
2013-7-28,88.7,77.5,69.9,74.5,71.1,68.3,98,82,54,29.97,29.89,9,1,9,0.04
2013-7-29,88.2,76.6,69.6,73.5,69.2,64.0,97,79,53,30.12,29.96,12,1,12,0.00
2013-7-30,90.5,76.4,63.6,70.0,65.7,60.1,90,71,45,30.19,30.10,8,0,8,0.00
2013-7-31,83.8,78.3,72.5,75.0,71.6,68.4,93,80,68,30.11,29.97,12,2,12,0.01
2013-8-1,85.5,75.1,70.3,75.9,71.7,68.5,97,90,67,29.99,29.83,12,1,12,0.00
2013-8-2,89.2,77.3,67.1,74.6,70.1,66.2,98,80,53,29.99,29.87,5,1,5,0.00
2013-8-3,90.3,78.0,71.5,78.3,73.4,69.5,97,87,58,29.98,29.87,12,1,12,0.00
2013-8-4,84.3,72.4,68.4,70.8,67.9,63.8,98,87,54,30.00,29.85,1,0,1,0.00
2013-8-5,85.3,74.7,64.6,67.8,64.1,59.6,92,71,48,30.07,29.98,9,1,9,0.01
2013-8-6,83.5,74.9,67.5,71.2,67.7,64.2,95,79,60,30.04,29.97,10,2,10,0.01
2013-8-7,86.5,77.7,68.5,72.1,69.6,66.7,95,77,55,30.08,29.99,13,2,13,0.00
2013-8-8,90.5,80.0,71.3,74.6,72.1,69.8,96,78,55,30.04,29.96,9,1,9,0.00
2013-8-9,91.8,82.3,75.1,77.5,74.8,72.5,93,79,60,30.02,29.94,12,2,12,0.00
2013-8-10,93.8,80.2,73.7,79.1,74.9,71.2,94,85,60,30.06,29.97,21,2,21,0.06
2013-8-11,93.5,81.0,72.1,77.7,74.2,71.2,97,82,55,30.08,29.97,7,1,7,0.00
2013-8-12,93.0,82.4,74.4,76.4,74.1,70.2,97,78,50,30.01,29.89,6,1,6,0.00
2013-8-13,90.8,78.6,71.0,80.8,74.4,70.0,97,88,64,29.94,29.73,17,1,17,0.61
2013-8-14,76.0,71.6,62.0,72.8,66.0,58.0,95,83,69,30.07,29.79,6,0,6,0.00
2013-8-15,79.2,66.5,59.2,63.0,59.2,56.3,92,79,51,30.14,30.05,5,0,5,0.00
2013-8-16,71.0,66.0,59.4,63.1,60.9,57.6,95,84,71,30.16,30.07,2,0,2,0.00
2013-8-17,72.2,67.5,63.2,70.7,65.4,60.6,97,93,88,30.15,30.09,4,0,4,0.24
2013-8-18,81.5,72.8,67.5,71.9,69.0,65.5,98,88,69,30.18,30.09,8,1,8,0.06
2013-8-19,74.8,69.7,66.6,71.8,68.1,65.2,97,95,86,30.17,30.07,9,0,9,0.52
2013-8-20,84.4,75.2,67.7,74.6,71.3,66.8,98,88,71,30.16,30.08,4,0,4,0.00
2013-8-21,89.8,76.7,70.5,77.0,72.9,69.3,97,89,64,30.19,30.07,9,1,9,1.33
2013-8-22,91.7,78.8,69.7,75.4,71.5,68.5,97,80,52,30.12,29.96,6,1,6,0.00
2013-8-23,88.2,76.9,68.9,78.3,71.3,66.3,96,84,58,30.04,29.89,8,1,8,0.18
2013-8-24,83.3,73.0,64.4,66.9,63.2,60.1,93,73,47,30.28,30.03,9,1,9,0.00
2013-8-25,81.2,70.4,62.0,65.7,61.1,57.1,96,75,46,30.37,30.26,7,1,7,0.00
2013-8-26,85.8,70.4,57.3,65.6,59.6,55.6,96,72,38,30.30,30.09,7,1,7,0.00
2013-8-27,90.1,75.9,65.0,74.0,66.9,58.5,89,75,53,30.10,29.93,5,1,5,0.00
2013-8-28,84.0,77.1,70.8,75.9,72.9,69.3,96,87,73,29.96,29.84,5,0,5,0.00
2013-8-29,88.1,80.0,72.6,75.9,73.1,69.5,91,80,62,29.98,29.80,6,1,6,0.00
2013-8-30,91.0,76.5,65.6,70.4,67.9,63.1,96,77,44,30.03,29.91,5,0,5,0.00
2013-8-31,89.5,77.7,66.9,73.8,70.1,65.2,97,79,54,29.95,29.83,12,2,12,0.00
2013-9-1,91.3,79.7,72.1,79.2,73.4,69.8,94,82,60,29.87,29.74,12,2,12,0.44
2013-9-3,75.7,74.5,73.2,72.2,71.7,71.0,93,91,89,29.91,29.88,2,0,2,0.16
2013-9-4,75.7,71.6,67.6,71.4,68.9,64.0,96,91,86,30.06,29.90,4,0,2,0.00
2013-9-5,89.5,76.0,66.4,70.7,65.1,58.6,96,72,38,30.07,30.00,7,1,7,0.00
2013-9-6,83.0,72.4,63.1,67.1,62.3,57.5,90,72,48,30.15,30.05,6,1,6,0.00
2013-9-7,84.1,71.3,59.4,67.0,62.7,57.7,95,76,50,30.11,29.95,8,1,8,0.00
2013-9-8,88.5,74.8,63.7,68.6,64.8,61.6,94,74,42,29.96,29.88,5,1,5,0.00
2013-9-9,89.3,77.4,66.2,72.5,68.5,63.8,93,76,53,30.12,29.96,7,1,7,0.00
2013-9-10,92.1,79.0,68.5,73.3,69.5,67.0,96,75,47,30.21,30.11,7,1,7,0.00
2013-9-11,90.4,77.8,67.7,72.8,68.8,65.7,94,76,51,30.18,30.05,9,1,9,0.00
2013-9-12,90.5,78.9,71.0,74.5,70.4,67.2,89,76,56,30.05,29.77,9,1,9,0.00
2013-9-13,86.3,76.0,66.6,70.4,65.0,55.3,91,71,45,29.86,29.72,12,1,12,0.00
2013-9-14,77.8,66.7,57.9,57.1,53.4,49.5,80,64,44,30.12,29.86,10,1,10,0.00
2013-9-15,82.5,68.1,55.0,62.5,57.8,52.1,94,72,46,30.22,30.09,7,1,7,0.00
2013-9-16,86.5,74.2,67.1,72.6,65.4,59.1,95,76,46,30.17,30.01,8,1,8,0.05
2013-9-17,78.1,67.0,58.6,60.4,55.6,51.3,88,69,42,30.30,30.16,9,1,9,0.00
2013-9-18,74.2,61.5,50.9,55.5,52.2,48.9,94,74,44,30.28,30.15,6,0,6,0.00
2013-9-19,79.5,66.5,56.1,62.8,57.7,51.6,89,75,51,30.17,30.06,5,0,5,0.00
2013-9-20,70.9,66.4,62.5,66.2,63.0,59.8,95,89,80,30.07,29.95,7,1,7,0.23
2013-9-21,76.2,70.0,65.6,70.7,67.3,63.7,96,91,81,29.95,29.70,13,2,13,0.68
2013-9-22,78.5,68.1,59.9,65.7,61.6,56.2,96,81,53,29.87,29.68,10,1,10,0.56
2013-9-23,73.1,62.4,54.8,59.0,54.3,50.4,92,76,52,30.05,29.87,7,1,7,0.00
2013-9-24,76.8,63.3,54.3,62.6,56.8,52.0,93,81,56,30.08,29.93,6,0,6,0.00
2013-9-25,76.5,64.4,54.1,62.9,58.9,52.6,96,84,57,29.94,29.85,4,0,4,0.00
2013-9-26,77.6,66.6,57.6,61.4,58.4,54.3,95,77,46,30.01,29.85,7,0,7,0.00
2013-9-27,70.2,59.1,55.0,62.1,56.3,53.6,96,91,72,30.13,30.01,5,0,5,0.00
2013-9-28,73.8,61.6,52.7,58.6,54.6,51.3,96,80,55,30.24,30.14,6,1,6,0.00
2013-9-29,75.7,67.2,59.3,57.3,55.7,54.0,92,68,49,30.09,30.01,7,1,7,0.01
2013-9-30,77.4,63.4,55.1,61.4,56.7,53.7,96,81,48,30.08,29.98,6,0,6,0.00
2013-10-1,84.7,67.2,53.9,64.1,58.3,51.9,95,76,46,30.10,30.00,7,1,7,0.00
2013-10-2,86.0,70.8,59.3,65.6,60.9,57.6,95,74,43,30.11,30.01,8,1,8,0.00
2013-10-3,87.3,72.8,60.8,67.4,62.9,58.6,94,74,45,30.10,30.03,9,1,9,0.00
2013-10-4,88.8,74.2,64.1,68.5,64.9,62.1,94,75,45,30.10,30.02,9,1,9,0.00
2013-10-5,91.0,75.4,63.4,70.6,65.6,61.6,95,75,42,30.09,30.00,12,1,12,0.00
2013-10-6,85.3,73.2,64.4,72.4,68.1,62.6,96,85,62,30.04,29.91,16,3,16,0.00
2013-10-7,74.0,72.4,71.5,71.5,70.2,69.5,95,93,90,29.92,29.83,12,3,12,0.31
2013-10-8,71.7,71.7,71.7,69.9,69.9,69.9,94,94,94,29.84,29.84,0,0,1,0.00
2013-10-9,71.7,55.7,54.1,69.9,54.1,52.7,95,95,93,30.10,29.84,11,3,11,0.17
2013-10-10,60.5,56.6,53.3,58.7,54.9,51.8,96,94,92,30.05,29.91,12,3,12,0.03
2013-10-11,65.4,61.1,58.3,62.7,59.5,57.1,96,94,89,29.95,29.88,8,1,8,0.00
2013-10-12,68.6,63.8,60.9,65.2,61.9,59.4,96,94,88,30.06,29.93,6,1,6,0.00
2013-10-13,67.0,63.7,61.6,64.0,62.0,60.3,96,94,90,30.17,30.05,6,1,6,0.00
2013-10-14,65.4,61.8,56.7,62.4,59.8,55.3,96,93,88,30.22,30.15,5,1,5,0.00
2013-10-15,71.5,62.0,53.8,63.1,57.9,52.7,96,87,71,30.18,30.03,7,1,7,0.00
2013-10-16,69.1,64.5,61.3,63.6,61.3,59.6,95,90,79,30.04,29.93,4,0,4,0.00
2013-10-17,76.7,67.6,60.4,66.2,63.0,58.6,95,86,69,29.95,29.82,8,1,8,0.00
2013-10-18,68.8,63.0,55.3,64.9,54.9,48.5,94,76,54,30.02,29.85,7,0,7,0.00
2013-10-19,70.3,63.3,59.1,65.4,59.8,54.8,94,89,81,29.95,29.79,5,0,5,0.00
2013-10-20,67.2,55.5,46.5,58.0,47.2,42.4,95,76,44,30.11,29.88,6,1,6,0.00
2013-10-21,69.9,54.7,42.9,51.3,46.4,41.1,96,76,42,30.15,29.99,5,0,5,0.00
2013-10-22,64.3,57.6,51.4,58.6,54.0,48.7,95,88,81,29.99,29.79,4,0,4,0.00
2013-10-23,66.3,58.0,47.0,57.5,48.3,34.8,96,73,39,29.98,29.66,15,3,15,0.00
2013-10-24,58.9,47.0,36.0,40.2,35.6,32.8,90,67,41,30.17,29.98,12,2,12,0.00
2013-10-25,56.2,46.1,36.7,37.6,33.5,29.5,82,63,37,30.35,30.17,12,1,12,0.00
2013-10-26,59.7,44.8,30.1,37.6,33.2,28.1,93,67,37,30.35,30.06,12,1,12,0.00
2013-10-27,69.5,54.6,41.9,46.6,41.8,36.5,89,64,39,30.11,30.03,10,1,10,0.00
2013-10-28,70.8,57.0,45.7,56.2,50.4,43.2,92,80,50,30.25,30.11,4,0,4,0.00
2013-10-29,73.5,60.1,52.1,58.5,54.4,50.3,95,83,57,30.32,30.23,4,0,4,0.00
2013-10-30,71.8,62.2,54.5,61.5,56.9,52.6,95,84,64,30.28,30.14,6,1,6,0.00
2013-10-31,75.2,65.8,56.0,64.5,58.3,54.1,94,78,59,30.17,29.91,14,2,14,0.00
2013-11-1,72.7,68.1,62.2,66.6,64.7,59.7,95,89,79,29.91,29.65,15,4,15,0.00
2013-11-2,70.7,61.5,51.7,59.7,51.7,42.5,96,73,40,29.91,29.67,10,2,10,0.00
2013-11-3,63.6,51.2,40.9,43.1,39.7,36.0,89,67,41,30.35,29.91,12,1,12,1.24
2013-11-4,56.4,45.1,37.5,38.2,34.2,31.5,87,67,42,30.54,30.35,8,1,8,0.00
2013-11-5,58.0,48.3,37.6,49.8,42.5,33.1,90,80,68,30.53,30.41,5,1,5,0.00
2013-11-6,72.9,57.6,44.5,57.6,51.6,42.6,94,82,55,30.42,30.10,6,0,6,0.00
2013-11-7,69.6,60.1,44.5,62.9,53.6,33.5,95,80,56,30.10,29.90,12,2,12,0.07
2013-11-8,57.4,45.2,33.5,34.4,31.0,26.7,87,61,32,30.32,30.08,14,2,14,0.00
2013-11-9,59.0,46.7,34.4,38.8,33.2,28.4,84,61,33,30.36,30.17,10,1,10,0.00
2013-11-10,71.6,55.5,40.8,41.9,36.4,28.9,83,51,27,30.22,30.05,16,2,16,0.00
2013-11-11,61.6,46.4,34.2,35.3,31.7,28.5,86,59,32,30.32,30.12,7,0,7,0.00
2013-11-12,60.2,44.0,34.9,39.5,33.0,17.8,90,67,41,30.41,30.04,14,2,14,0.01
2013-11-13,45.1,34.4,26.7,24.1,19.5,15.7,82,56,33,30.53,30.40,12,2,12,0.00
2013-11-14,58.6,40.3,25.8,28.4,24.9,22.5,90,59,27,30.47,30.33,9,1,9,0.00
2013-11-15,61.1,48.8,33.6,49.4,36.8,24.1,86,64,42,30.36,30.20,6,0,6,0.00
2013-11-16,69.6,57.2,51.4,58.9,53.0,48.0,95,86,68,30.26,30.19,5,1,5,0.00
2013-11-17,71.0,61.7,53.7,65.1,58.2,52.3,96,89,71,30.21,29.88,9,1,9,0.10
2013-11-18,74.2,67.4,61.6,66.7,61.8,52.5,95,84,48,29.88,29.78,13,3,13,0.05
2013-11-19,52.8,47.5,42.1,31.1,30.1,28.7,63,52,41,30.31,30.09,12,3,10,0.05
2013-11-20,52.6,44.2,36.7,39.1,32.9,28.0,85,65,50,30.44,30.30,10,2,10,0.00
2013-11-21,63.2,49.7,40.7,50.1,43.0,37.1,88,78,61,30.50,30.38,6,1,6,0.00
2013-11-22,70.8,60.4,46.3,60.9,54.9,43.8,93,82,70,30.39,30.07,12,1,12,0.02
2013-11-23,61.5,55.3,42.4,59.5,42.9,19.8,95,66,34,30.15,30.01,9,2,9,0.02
2013-11-24,42.4,33.0,25.0,24.1,11.0,3.1,58,41,25,30.54,30.15,14,3,14,0.00
2013-11-25,43.7,32.2,22.1,16.4,11.2,7.6,68,43,23,30.59,30.38,7,1,7,0.00
2013-11-26,64.5,44.1,36.5,62.9,34.3,14.3,96,71,39,30.39,29.60,20,3,20,0.76
2013-11-27,39.6,34.8,29.6,37.7,28.9,18.2,94,79,62,30.16,29.55,17,5,17,1.10
2013-11-28,45.0,32.7,22.7,25.0,20.4,12.0,85,61,38,30.49,30.15,9,1,9,0.00
2013-11-29,50.4,36.7,27.6,28.2,25.3,22.4,89,65,40,30.64,30.47,10,1,10,0.00
2013-11-30,48.7,37.1,28.5,34.6,29.1,22.2,85,73,56,30.64,30.37,8,1,8,0.00
2013-12-1,59.4,43.4,29.3,38.7,33.5,26.9,94,71,36,30.37,30.01,5,0,5,0.00
2013-12-2,60.7,47.5,40.3,44.8,40.9,37.1,92,79,51,30.01,29.81,5,0,5,0.00
2013-12-3,60.1,54.4,51.0,55.9,47.5,44.6,92,78,60,30.06,29.92,1,0,7,0.00
2013-12-4,63.9,60.0,54.7,57.6,55.9,52.9,94,87,80,30.08,29.99,2,0,6,0.00
2013-12-5,67.0,61.4,54.7,64.0,59.2,53.0,96,92,87,30.12,30.02,10,1,10,0.05
2013-12-6,78.8,70.8,66.2,66.1,64.2,62.3,93,80,63,30.06,29.95,18,4,18,0.00
2013-12-7,69.4,69.1,68.7,65.3,65.0,64.7,87,87,86,29.99,29.96,10,4,10,0.00
2013-12-8,34.2,33.6,33.1,32.7,32.1,31.3,94,94,93,30.40,30.30,1,1,7,0.07
2013-12-9,45.4,41.5,33.1,44.3,40.4,31.6,96,96,94,30.19,30.06,15,1,15,0.18
2013-12-10,46.7,42.3,28.6,44.5,39.3,25.8,96,89,65,30.32,29.91,9,1,9,0.21
2013-12-11,49.0,35.7,26.2,29.5,25.6,21.6,94,70,38,30.45,30.30,9,1,9,0.00
2013-12-12,45.1,35.1,25.3,21.9,19.6,14.6,85,56,31,30.39,30.32,2,1,11,0.00
2013-12-13,51.3,43.2,36.5,30.0,25.1,19.6,68,51,31,30.33,30.27,9,1,11,0.00
2013-12-14,47.1,41.7,39.3,41.1,34.7,27.5,95,77,53,30.30,29.76,12,2,12,0.83
2013-12-15,54.4,43.4,33.3,44.1,36.6,27.8,95,79,52,30.06,29.69,13,2,13,0.00
2013-12-16,55.0,41.1,30.9,36.7,32.3,26.4,92,72,47,30.17,30.05,7,1,7,0.00
2013-12-17,60.9,49.8,37.3,40.0,37.1,31.7,90,63,44,30.11,29.86,15,2,15,0.00
2013-12-18,48.9,40.2,32.7,38.9,26.4,18.8,89,61,31,30.28,30.01,13,1,13,0.00
2013-12-19,62.4,47.1,33.9,31.7,25.6,20.8,59,44,26,30.32,30.21,14,2,14,0.00
2013-12-20,66.5,55.9,46.0,54.9,45.9,31.8,89,70,52,30.23,30.10,13,2,13,0.00
2013-12-21,74.6,62.8,52.6,65.9,56.7,46.8,90,81,65,30.14,30.02,15,2,15,0.00
2013-12-22,77.9,70.5,64.3,68.0,65.1,62.1,94,83,66,30.09,30.00,20,3,20,0.35
2013-12-23,67.3,60.5,47.0,65.8,58.4,41.8,96,93,82,30.13,29.96,16,3,16,1.75
2013-12-24,46.9,40.7,29.2,41.7,29.9,14.4,92,66,48,30.45,30.10,12,4,12,0.00
2013-12-25,40.4,30.0,22.9,19.9,14.5,11.2,77,54,31,30.55,30.40,8,1,8,0.00
2013-12-26,52.2,37.8,25.9,32.2,27.1,19.8,90,67,39,30.40,30.25,6,1,6,0.01
2013-12-27,53.2,39.4,31.0,26.1,23.1,20.6,71,54,30,30.46,30.36,6,0,6,0.00
2013-12-28,59.4,43.3,28.3,34.9,28.7,24.3,87,59,27,30.40,30.16,7,0,7,0.00
2013-12-29,62.6,49.5,43.2,61.5,46.2,32.3,97,89,51,30.15,29.68,18,2,18,1.80
2013-12-30,53.4,45.6,37.4,44.8,40.2,34.9,97,82,62,30.13,29.91,6,1,6,0.01
2013-12-31,50.3,41.7,34.1,37.2,30.9,23.0,92,67,36,30.35,30.11,14,2,14,0.00
2014-1-1,51.6,40.2,31.7,31.2,27.7,24.0,84,63,35,30.42,30.14,7,1,7,0.00
2014-1-2,49.4,43.7,38.8,45.2,38.2,31.1,95,81,68,30.15,29.56,13,1,13,0.33